Tracking 19651 objects as of 22-Apr-2019
HD Live streaming from Space Station
objects crossing your sky now

NUDT-PHONESAT

Track NUDT-PHONESAT now!
10-day predictions
NUDT-PHONESAT is classified as:


NORAD ID: 40900
Int'l Code: 2015-049B
Perigee: 495.6 km
Apogee: 515.0 km
Inclination: 97.4 °
Period: 94.6 minutes
Semi major axis: 6876 km
RCS: Unknown
Launch date: September 19, 2015
Source: People's Republic of China (PRC)
Launch site: Taiyaun Space Center, China (TSC)

Uplink (MHz):
Downlink (MHz): 437.300
Beacon (MHz):
Mode: 9k6 GFSK
Call sign: BJ1SJ
Status: Inactive

aabbcc
Your satellite tracking list
Your tracking list is empty




NASA's NSSDC Master Catalog

Two Line Element Set (TLE):
1 40900U 15049B   19111.81171051  .00002056  00000-0  91477-4 0  9994
2 40900  97.4389 121.7220 0014163  35.5579  49.7416 15.22545147198857
Source of the keplerian elements: Caltech